[[{"header":{"parameterUnit":"m.s-1","parameterCategory":1,"la1":30.2991,"la2":30.254,"lo1":-89.0895,"lo2":-89.0444,"dy":0.0017,"dx":0.0017,"nx":28,"ny":28,"refTime":"2025-05-25T09:00:00:Z","depth":0,"parameterNumber":2,"parameterNumberName":"U-component_of_WINDS"},"data":[0,0,0,0,0,0,0,0,0,0,0,0,0,0,0,0,0,0,0,0,0,0,0,0,0,0,0,0,0,0,0,0,0,0,0,0,0,0,0,0,0,0,0,0,0,0,0,0,0,0,0,0,0,0,0,0,0,0,-0.1348,-0.1348,0,-0.1341,-0.1341,-0.1341,-0.1361,-0.1361,-0.1362,-0.1363,-0.1356,-0.1355,-0.1354,0,0,0,0,0,0,0,0,0,0,0,0,0,-0.1379,-0.1378,-0.1348,-0.1348,-0.1348,-0.1341,-0.1341,-0.1341,-0.1361,-0.1361,-0.1362,-0.1363,-0.1356,-0.1355,-0.1354,0,0,0,0,0,0,0,0,0,0,0,0,0,-0.1368,-0.1378,-0.1348,-0.1357,-0.1357,-0.1341,-0.1341,-0.1341,-0.136,-0.1361,-0.1362,-0.1363,-0.1356,-0.1355,-0.1354,-0.1328,0,0,-0.135,-0.135,0,0,0,0,0,0,0,0,-0.1369,-0.1367,-0.1356,-0.1356,-0.1357,-0.1353,-0.1349,-0.1337,-0.136,-0.1359,-0.1363,-0.1364,-0.1354,-0.1353,-0.135,-0.1328,-0.1328,-0.135,-0.135,-0.1349,-0.1349,0,0,0,0,0,0,0,-0.1369,-0.1367,-0.1345,-0.1355,-0.1356,-0.1361,-0.1361,-0.1347,-0.1352,-0.1359,-0.1361,-0.136,-0.1354,-0.1351,-0.135,-0.1328,-0.135,-0.1349,-0.1349,-0.1348,-0.1285,-0.1284,0,0,0,0,0,0,-0.1369,-0.1368,-0.1345,-0.1345,-0.1365,-0.136,-0.1359,-0.1353,-0.1352,-0.1352,-0.1359,-0.1361,-0.1352,-0.1351,-0.1349,-0.132,-0.1349,-0.1348,-0.1347,-0.1286,-0.1285,-0.1284,0,0,0,0,0,0,-0.1369,-0.1367,-0.1346,-0.1357,-0.1354,-0.1358,-0.1351,-0.1352,-0.1349,-0.1351,-0.1352,-0.1354,-0.1353,-0.1351,-0.1334,-0.132,-0.1348,-0.1347,-0.1287,-0.1286,-0.1285,-0.126,0,0,0,0,0,0,-0.137,-0.1367,-0.1357,-0.1356,-0.1354,-0.133,-0.135,-0.1352,-0.1347,-0.1349,-0.1347,-0.1348,-0.1353,-0.1335,-0.1332,-0.1319,-0.1346,-0.1289,-0.1287,-0.1285,-0.1262,-0.1258,-0.1254,0,0,0,0,0,-0.1371,-0.135,-0.1356,-0.1354,-0.1342,-0.1329,-0.1327,-0.1334,-0.1345,-0.1336,-0.1338,-0.1348,-0.1322,-0.1333,-0.133,-0.1316,-0.129,-0.1287,-0.1285,-0.1264,-0.1259,-0.1255,0,0,0,0,0,0,-0.1349,-0.135,-0.1357,-0.1335,-0.1332,-0.1332,-0.132,-0.1328,-0.1322,-0.1324,-0.1333,-0.1332,-0.1313,-0.1313,-0.1326,-0.1292,-0.1308,-0.1305,-0.1293,-0.1288,-0.1284,-0.1284,-0.1345,0,0,0,0,0,-0.1342,-0.1331,-0.1333,-0.1314,-0.1311,-0.1316,-0.1311,-0.1316,-0.1313,-0.1312,-0.1312,-0.1309,-0.13,-0.1294,-0.1286,-0.1262,-0.1262,-0.1251,-0.1247,-0.1244,-0.1241,-0.1229,-0.1224,-0.1277,-0.1277,-0.1277,0,0,-0.1327,-0.1326,-0.1319,-0.1309,-0.1307,-0.1296,-0.1315,-0.1302,-0.1294,-0.131,-0.1293,-0.1294,-0.129,-0.127,-0.1261,-0.1269,-0.1227,-0.1241,-0.1239,-0.1238,-0.1227,-0.1222,-0.1217,-0.1275,-0.1275,-0.1276,0,0,-0.1293,-0.1291,-0.1275,-0.1273,-0.1269,-0.1273,-0.1269,-0.1268,-0.1269,-0.1252,-0.1264,-0.1254,-0.1239,-0.1236,-0.1233,-0.1198,-0.1208,-0.1195,-0.1175,-0.1163,-0.1159,-0.1156,-0.1144,-0.1139,-0.1193,-0.1193,-0.1193,0,-0.1275,-0.1259,-0.1266,-0.1253,-0.1248,-0.1262,-0.1246,-0.1243,-0.1237,-0.1234,-0.1243,-0.1224,-0.1223,-0.1202,-0.1193,-0.119,-0.1186,-0.1196,-0.1159,-0.1156,-0.1152,-0.1141,-0.1136,-0.1191,-0.1191,-0.1192,-0.1192,0,-0.1236,-0.1225,-0.1212,-0.1206,-0.12,-0.1185,-0.1191,-0.1184,-0.119,-0.1192,-0.1176,-0.1175,-0.1167,-0.1162,-0.1168,-0.1142,-0.1147,-0.1158,-0.1174,-0.1146,-0.1135,-0.1131,-0.1189,-0.119,-0.119,-0.1191,0,0,-0.1189,-0.1187,-0.1183,-0.118,-0.1177,-0.1169,-0.1155,-0.1147,-0.1141,-0.1136,-0.1125,-0.1112,-0.1121,-0.1117,-0.1123,-0.1112,-0.1085,-0.1124,-0.1124,-0.1117,-0.1057,-0.105,-0.1045,-0.1092,-0.1091,-0.109,-0.1058,0,-0.1157,-0.1132,-0.1139,-0.1115,-0.1105,-0.1117,-0.1105,-0.1102,-0.1104,-0.1096,-0.1098,-0.1088,-0.1101,-0.1099,-0.1089,-0.1091,-0.1074,-0.1093,-0.1081,-0.1081,-0.1082,-0.1039,-0.1031,-0.1001,-0.1054,-0.1053,-0.1053,0,-0.1115,-0.1109,-0.1084,-0.1083,-0.1079,-0.1068,-0.1062,-0.1053,-0.105,-0.1052,-0.1048,-0.1056,-0.1042,-0.1058,-0.104,-0.1053,-0.1049,-0.1049,-0.1048,-0.1047,-0.1065,-0.1038,-0.0991,-0.0987,-0.1046,-0.1047,-0.1047,0,-0.1084,-0.1069,-0.1053,-0.105,-0.1048,-0.104,-0.1039,-0.1037,-0.1032,-0.1026,-0.1023,-0.1016,-0.1012,-0.1006,-0.1012,-0.1023,-0.0993,-0.1009,-0.0994,-0.0994,-0.0988,-0.0988,-0.094,-0.0984,-0.0984,-0.0984,-0.0984,0,-0.1047,-0.1032,-0.1039,-0.1028,-0.1011,-0.1019,-0.1001,-0.1002,-0.1,-0.099,-0.1001,-0.0991,-0.0999,-0.099,-0.0995,-0.0979,-0.0977,-0.0978,-0.098,-0.0978,-0.0978,-0.0975,-0.0978,-0.0983,-0.0983,-0.0983,-0.0984,0,-0.101,-0.1014,-0.0996,-0.0996,-0.0996,-0.0983,-0.0983,-0.0974,-0.0976,-0.0963,-0.0961,-0.0965,-0.0955,-0.096,-0.095,-0.0953,-0.0933,-0.0937,-0.0934,-0.0935,-0.092,-0.0921,-0.0869,-0.0862,-0.091,-0.091,-0.0909,0,-0.0986,-0.0975,-0.0973,-0.0967,-0.0965,-0.0955,-0.095,-0.0957,-0.0951,-0.0947,-0.0938,-0.0929,-0.0923,-0.0907,-0.0909,-0.0901,-0.0905,-0.0887,-0.0904,-0.0903,-0.0906,-0.0906,-0.0905,-0.0884,-0.0884,-0.0883,-0.0883,0,-0.0944,-0.0947,-0.0939,-0.0931,-0.0925,-0.0919,-0.0915,-0.091,-0.0916,-0.0909,-0.0899,-0.0894,-0.0884,-0.0875,-0.0869,-0.0868,-0.0876,-0.0877,-0.0874,-0.0872,-0.087,-0.0871,-0.0925,-0.0879,-0.0879,-0.0879,-0.088,-0.088,-0.0914,-0.0904,-0.0901,-0.0892,-0.0889,-0.0884,-0.0876,-0.0877,-0.0869,-0.0861,-0.0865,-0.0854,-0.0851,-0.0843,-0.0841,-0.0833,-0.084,-0.0834,-0.0833,-0.0831,-0.0829,-0.0871,-0.0831,-0.0831,-0.0832,-0.0832,-0.0832,0,-0.0873,-0.0871,-0.0863,-0.0856,-0.0849,-0.0857,-0.0852,-0.0846,-0.0836,-0.0832,-0.0826,-0.0814,-0.0806,-0.0807,-0.0799,-0.0792,-0.0796,-0.079,-0.0791,-0.0791,-0.0823,-0.0828,-0.0787,-0.0787,-0.0787,-0.0787,-0.0787,-0.0787,-0.0851,-0.0835,-0.0837,-0.0819,-0.0818,-0.0807,-0.0804,-0.08,-0.0797,-0.0784,-0.0777,-0.0778,-0.0776,-0.0768,-0.0761,-0.0762,-0.0758,-0.0751,-0.0753,-0.0784,-0.0788,-0.0792,-0.0797,-0.075,-0.075,-0.0721,-0.0721,-0.0721]},{"header":{"parameterUnit":"m.s-1","parameterCategory":1,"la1":30.2991,"la2":30.254,"lo1":-89.0895,"lo2":-89.0444,"dy":0.0017,"dx":0.0017,"nx":28,"ny":28,"refTime":"2025-05-25T09:00:00:Z","depth":0,"parameterNumber":3,"parameterNumberName":"V-component_of_WINDS"},"data":[0,0,0,0,0,0,0,0,0,0,0,0,0,0,0,0,0,0,0,0,0,0,0,0,0,0,0,0,0,0,0,0,0,0,0,0,0,0,0,0,0,0,0,0,0,0,0,0,0,0,0,0,0,0,0,0,0,0,5.488,5.4881,0,5.4968,5.4969,5.497,5.4906,5.4903,5.49,5.4897,5.4984,5.4989,5.4994,0,0,0,0,0,0,0,0,0,0,0,0,0,5.4652,5.4656,5.488,5.4881,5.4882,5.4968,5.4969,5.497,5.4906,5.4903,5.4899,5.4896,5.4983,5.4988,5.4994,0,0,0,0,0,0,0,0,0,0,0,0,0,5.4746,5.4658,5.4879,5.486,5.486,5.4968,5.4969,5.497,5.4907,5.4903,5.4899,5.4895,5.4981,5.4988,5.4995,5.5125,0,0,5.5018,5.5021,0,0,0,0,0,0,0,0,5.4741,5.4755,5.4862,5.4862,5.4861,5.4922,5.492,5.5022,5.4908,5.4889,5.4897,5.4893,5.4967,5.4975,5.5001,5.513,5.5133,5.5018,5.5023,5.5026,5.5028,0,0,0,0,0,0,0,5.4735,5.475,5.4914,5.4864,5.4863,5.4846,5.4855,5.4939,5.495,5.489,5.4886,5.4897,5.4965,5.4994,5.5002,5.5134,5.5018,5.5025,5.5029,5.5032,5.5374,5.5378,0,0,0,0,0,0,5.473,5.4745,5.4912,5.4917,5.479,5.4854,5.4863,5.4906,5.4949,5.4952,5.4901,5.4894,5.4983,5.4994,5.5005,5.516,5.5026,5.5033,5.5037,5.5369,5.5375,5.538,0,0,0,0,0,0,5.4726,5.4746,5.4908,5.483,5.485,5.4862,5.4911,5.491,5.4938,5.4957,5.4958,5.4928,5.498,5.4994,5.5096,5.5162,5.5036,5.5043,5.5364,5.5371,5.5377,5.5472,0,0,0,0,0,0,5.4719,5.4744,5.4795,5.4832,5.4854,5.4999,5.4915,5.4915,5.4952,5.4944,5.4983,5.4985,5.4978,5.5085,5.5103,5.517,5.5049,5.5358,5.5367,5.5375,5.5463,5.5481,5.5497,0,0,0,0,0,5.4711,5.4817,5.4798,5.4818,5.4918,5.5003,5.5016,5.5006,5.4958,5.5008,5.502,5.4984,5.5152,5.5096,5.5116,5.5186,5.5354,5.5364,5.5375,5.5455,5.5477,5.5496,0,0,0,0,0,0,5.4787,5.4822,5.4801,5.4922,5.496,5.4992,5.5056,5.503,5.5082,5.5072,5.5057,5.5066,5.5173,5.5189,5.5127,5.5314,5.5245,5.526,5.5299,5.5321,5.5337,5.5331,5.5055,0,0,0,0,0,5.4818,5.4886,5.4912,5.5016,5.5037,5.5043,5.508,5.5069,5.5108,5.5123,5.5142,5.518,5.5241,5.5282,5.5339,5.5465,5.5472,5.5522,5.5539,5.5553,5.5566,5.5633,5.5656,5.5414,5.5414,5.5414,0,0,5.4882,5.491,5.4953,5.5032,5.5061,5.513,5.5057,5.5134,5.5184,5.5134,5.5232,5.5247,5.5288,5.5402,5.5453,5.5419,5.5634,5.5566,5.5577,5.5583,5.5646,5.5669,5.5689,5.5421,5.542,5.5419,0,0,5.5035,5.5063,5.5153,5.5183,5.5227,5.5231,5.5252,5.5289,5.5297,5.5395,5.5359,5.5418,5.5524,5.5554,5.5584,5.5748,5.5717,5.5767,5.5855,5.5921,5.594,5.5957,5.6015,5.6036,5.5779,5.578,5.578,0,5.5109,5.5214,5.5202,5.5282,5.5317,5.5276,5.5366,5.5395,5.5456,5.548,5.5442,5.5574,5.5598,5.5719,5.5759,5.5784,5.5807,5.5762,5.5938,5.5955,5.597,5.6026,5.6048,5.5786,5.5785,5.5784,5.5784,0,5.5302,5.5375,5.5442,5.5503,5.5546,5.563,5.563,5.5675,5.566,5.5667,5.5767,5.5795,5.5857,5.5884,5.587,5.6003,5.598,5.5941,5.5871,5.6,5.6051,5.6072,5.5794,5.5792,5.579,5.5789,0,0,5.5506,5.5559,5.5584,5.5611,5.5656,5.5711,5.5793,5.5855,5.5893,5.5936,5.6004,5.6094,5.6057,5.6091,5.6079,5.6137,5.6265,5.609,5.609,5.6121,5.6412,5.6442,5.6467,5.6244,5.6248,5.6252,5.6409,0,5.5661,5.5805,5.5797,5.5932,5.5999,5.596,5.6031,5.6066,5.6075,5.6132,5.614,5.6205,5.6151,5.6171,5.6226,5.6238,5.6323,5.6226,5.6306,5.6309,5.6298,5.6494,5.6526,5.6673,5.6429,5.6432,5.6435,0,5.5861,5.5912,5.6054,5.609,5.6117,5.6182,5.6237,5.6292,5.633,5.6332,5.637,5.6349,5.6431,5.6359,5.647,5.6405,5.6437,5.6447,5.6453,5.646,5.638,5.6506,5.672,5.6742,5.6466,5.6464,5.6461,0,5.5996,5.6099,5.6197,5.6222,5.6265,5.6311,5.6331,5.6365,5.6403,5.6451,5.6475,5.6532,5.6563,5.6607,5.6601,5.655,5.6714,5.6642,5.6718,5.6718,5.6754,5.6752,5.6976,5.6775,5.6775,5.6774,5.6774,0,5.617,5.6258,5.6258,5.6319,5.6416,5.6405,5.6502,5.6516,5.6547,5.6609,5.6578,5.6636,5.6626,5.6684,5.668,5.6772,5.6786,5.679,5.6788,5.6793,5.6792,5.6814,5.6803,5.678,5.6779,5.6778,5.6777,0,5.6336,5.634,5.6445,5.6478,5.6488,5.6558,5.6585,5.6642,5.6648,5.6726,5.6744,5.6753,5.682,5.6819,5.6894,5.6891,5.7005,5.6991,5.6993,5.699,5.7065,5.7058,5.7311,5.7343,5.7121,5.7123,5.7125,0,5.6447,5.6515,5.6555,5.6595,5.6618,5.6682,5.6721,5.6712,5.6753,5.6801,5.6852,5.6916,5.6966,5.7074,5.7087,5.7144,5.7131,5.7216,5.7139,5.7142,5.7132,5.7129,5.7135,5.7231,5.7233,5.7235,5.7237,0,5.6644,5.6643,5.67,5.6758,5.6805,5.685,5.6891,5.6925,5.6921,5.6968,5.7036,5.7076,5.7153,5.7217,5.7272,5.729,5.7263,5.7261,5.7281,5.7287,5.7285,5.7287,5.7033,5.7255,5.7253,5.7252,5.7251,5.725,5.6786,5.6844,5.6882,5.6946,5.6977,5.7016,5.7071,5.7084,5.7141,5.7204,5.7195,5.7271,5.7306,5.7378,5.7402,5.746,5.743,5.746,5.7468,5.7475,5.7484,5.7276,5.747,5.747,5.7469,5.7469,5.7468,0,5.6982,5.7004,5.7063,5.7123,5.7173,5.7144,5.7188,5.7232,5.7299,5.7335,5.7386,5.7464,5.7526,5.7543,5.7602,5.7645,5.7634,5.7661,5.7658,5.7663,5.7507,5.7483,5.7669,5.7669,5.7669,5.7669,5.7669,5.7669,5.7089,5.7186,5.7189,5.7299,5.732,5.7395,5.7423,5.7459,5.7487,5.7576,5.7628,5.7639,5.7667,5.7728,5.7782,5.7786,5.7809,5.7841,5.7839,5.7694,5.7673,5.7654,5.7632,5.7846,5.7846,5.799,5.7991,5.7992]}]]